Regional Weather Roundup
Issued by NWS

Home | Current Version | Previous Version | Graphics & Text | Print | Product List | Glossary On
Versions: 1 2 3 4 5 6 7 8 9 10 11 12 13 14 15 16 17 18 19 20 21 22 23 24 25 26 27 28 29 30 31 32 33 34 35 36 37 38 39 40 41 42 43 44 45 46 47 48 49 50
000
ASUS43 KMKX 010621
RWRWI

WISCONSIN REGIONAL WEATHER ROUNDUP
NATIONAL WEATHER SERVICE MILWAUKEE/SULLIVAN WI
100 AM CDT TUE SEP 01 2015

NOTE: "FAIR" INDICATES FEW OR NO CLOUDS BELOW 12,000 FEET WITH NO
SIGNIFICANT WEATHER AND/OR OBSTRUCTIONS TO VISIBILITY.

WIZ001-002-006>008-014>016-023>028-010700-
NORTHWEST WISCONSIN

CITY           SKY/WX    TMP DP  RH WIND       PRES   REMARKS
SUPERIOR ARPT  MOCLDY    70  69  96 CALM      29.86S
6HR MIN TEMP:  68; 6HR MAX TEMP:  78;

ASHLAND        FAIR      71  71 100 S7        29.90S
6HR MIN TEMP:  71; 6HR MAX TEMP:  76;

HAYWARD        FAIR      71  69  93 S5        29.93S
6HR MIN TEMP:  71; 6HR MAX TEMP:  76;

SIREN          FAIR      71  70  95 S6        29.92R FOG
6HR MIN TEMP:  71; 6HR MAX TEMP:  79;

CUMBERLAND     FAIR      68  68 100 S5        29.95R FOG
RICE LAKE      FAIR      68  66  94 CALM      29.96R FOG
6HR MIN TEMP:  68; 6HR MAX TEMP:  77;

CHETEK           N/A    N/A N/A N/A CALM      29.95R FOG
LADYSMITH      FAIR      71  69  93 S5        29.98S
6HR MIN TEMP:  71; 6HR MAX TEMP:  76;

EAU CLAIRE     FAIR      73  69  87 S7        29.94S
6HR MIN TEMP:  72; 6HR MAX TEMP:  80;

MENOMONIE      FAIR      69  68  97 E3        29.94S FOG
6HR MIN TEMP:  69; 6HR MAX TEMP:  78;

NEW RICHMOND   FAIR      70  69  97 S5        29.94R FOG
6HR MIN TEMP:  70; 6HR MAX TEMP:  79;

OSCEOLA        FAIR      71  71 100 S3        29.95R
6HR MIN TEMP:  71; 6HR MAX TEMP:  81;

$$

WIZ003>005-009-010-017-018-010700-
NORTH CENTRAL WISCONSIN

CITY           SKY/WX    TMP DP  RH WIND       PRES   REMARKS
MANITOWISH WTR FAIR      68  68 100 S7        29.98S
6HR MIN TEMP:  66; 6HR MAX TEMP:  72;

ARBOR VITAE    FAIR      72  70  93 S8        29.99S
6HR MIN TEMP:  69; 6HR MAX TEMP:  72;

WOODRUFF       FAIR      72  70  93 S8        29.99S
6HR MIN TEMP:  69; 6HR MAX TEMP:  72;

RHINELANDER    FAIR      69  66  90 SW8       30.01S
6HR MIN TEMP:  66; 6HR MAX TEMP:  72;

EAGLE RIVER    FAIR      67  67  98 SW7       29.99S
6HR MIN TEMP:  65; 6HR MAX TEMP:  72;

LAND O LAKES   FAIR      66  65  97 CALM      30.00S FOG
6HR MIN TEMP:  66; 6HR MAX TEMP:  74;

PHILLIPS       FAIR      68  68  98 S5        29.97S
6HR MIN TEMP:  68; 6HR MAX TEMP:  73;

TOMAHAWK       FAIR      66  65  97 CALM      30.00F FOG
6HR MIN TEMP:  64; 6HR MAX TEMP:  71;

MEDFORD        FAIR      66  66  99 S6        30.00S FOG
6HR MIN TEMP:  65; 6HR MAX TEMP:  72;

MERRILL        FAIR      62  62 100 CALM      30.00S FOG
6HR MIN TEMP:  61; 6HR MAX TEMP:  74;

$$

WIZ029-030-035-036-043>047-010700-
CENTRAL WISCONSIN

CITY           SKY/WX    TMP DP  RH WIND       PRES   REMARKS
WAUSAU         FAIR      68  66  93 S5        29.99S FOG
6HR MIN TEMP:  68; 6HR MAX TEMP:  75;

MOSINEE        FAIR      64  64 100 S6        30.01S FOG
MARSHFIELD     FAIR      66  63  90 S7        30.00S FOG
6HR MIN TEMP:  66; 6HR MAX TEMP:  71;

STEVENS POINT  FAIR      64  64  97 CALM      30.01S FOG
6HR MIN TEMP:  63; 6HR MAX TEMP:  75;

WAUPACA        FOG       66  65  97 CALM      30.01S VSB 1
6HR MIN TEMP:  66; 6HR MAX TEMP:  78;

WAUTOMA        FOG       63  63 100 CALM      30.01S VSB 1/2
6HR MIN TEMP:  63; 6HR MAX TEMP:  78;

WISC RAPIDS    FAIR      69  65  86 S5        30.01S
6HR MIN TEMP:  69; 6HR MAX TEMP:  76; 6HR PCP: TRACE;

CAMP DOUGLAS   FAIR      68  68 100 S8        29.99S
6HR MIN TEMP:  66; 6HR MAX TEMP:  78;

$$

WIZ011>013-019>022-031-037>040-048>050-010700-
NORTHEAST WISCONSIN

CITY           SKY/WX    TMP DP  RH WIND       PRES   REMARKS
ANTIGO         FAIR      67  66  97 SW8       30.02S
SHAWANO        FAIR      69  67  93 CALM      30.00R FOG
6HR MIN TEMP:  69; 6HR MAX TEMP:  77;

OCONTO         FAIR      65  65 100 CALM      29.99S
6HR MIN TEMP:  63; 6HR MAX TEMP:  73;

STURGEON BAY   FAIR      66  63  88 S9        30.02F
6HR MIN TEMP:  64; 6HR MAX TEMP:  73;

GREEN BAY      FAIR      68  66  93 S6        30.01R FOG
6HR MIN TEMP:  68; 6HR MAX TEMP:  74;

MANITOWOC      FAIR      57  56  96 MISG      30.03R FOG
6HR MIN TEMP:  57; 6HR MAX TEMP:  68;

APPLETON       FAIR      66  64  94 S5        30.00S FOG
CLINTONVILLE   CLOUDY    63  63 100 CALM      30.00S FOG
OSHKOSH        FAIR      68  66  93 S6        30.01S
6HR MIN TEMP:  66; 6HR MAX TEMP:  74;

$$

WIZ032>034-041-042-053>061-010700-
SOUTHWEST WISCONSIN

CITY           SKY/WX    TMP DP  RH WIND       PRES   REMARKS
LA CROSSE      FAIR      71  69  93 S5        29.96S
6HR MIN TEMP:  71; 6HR MAX TEMP:  81;

SPARTA         FAIR      66  65  94 CALM      29.98S FOG
6HR MIN TEMP:  66; 6HR MAX TEMP:  79;

VIROQUA          N/A     71  71 100 SE6       30.00S
6HR MIN TEMP:  71; 6HR MAX TEMP:  77;

BOSCOBEL       MOCLDY    70  68  93 CALM      29.99R FOG
6HR MIN TEMP:  69; 6HR MAX TEMP:  82;

PRAIRIE DU CHI CLOUDY    73  69  88 E6        29.98R
6HR MIN TEMP:  73; 6HR MAX TEMP:  81;

PLATTEVILLE    FAIR      72  70  95 SE7       30.00F
6HR MIN TEMP:  72; 6HR MAX TEMP:  78;

$$

WIZ056-057-062-063-064-067-068-010700-
SOUTH CENTRAL WISCONSIN

CITY           SKY/WX    TMP DP  RH WIND       PRES   REMARKS
REEDSBURG      FAIR      68  67  95 CALM      30.00R
6HR MIN TEMP:  68; 6HR MAX TEMP:  77;

BARABOO/DELLS  FAIR      69  65  88 S6        30.01R
6HR MIN TEMP:  68; 6HR MAX TEMP:  77;

LONE ROCK      FAIR      69  66  90 CALM      30.00S
6HR MIN TEMP:  68; 6HR MAX TEMP:  79;

MINERAL POINT  FAIR      72  70  94 SE6       30.02S
MADISON        FAIR      72  67  84 S6        30.01S
6HR MIN TEMP:  69; 6HR MAX TEMP:  79;

MIDDLETON      FAIR      70  67  89 CALM      30.02S
6HR MIN TEMP:  65; 6HR MAX TEMP:  79;

WATERTOWN      FAIR      67  67 100 CALM      30.03R FOG
6HR MIN TEMP:  66; 6HR MAX TEMP:  77;

MONROE         FAIR      72  68  88 S9        30.03S
JANESVILLE     FAIR      70  68  94 SE3       30.02S FOG
$$

WIZ051-052-058>065-066-070>072-010700-
SOUTHEAST WISCONSIN

CITY           SKY/WX    TMP DP  RH WIND       PRES   REMARKS
MILWAUKEE      FAIR      69  65  86 S6        30.04S
6HR MIN TEMP:  68; 6HR MAX TEMP:  72;

WAUKESHA       FAIR      64  64 100 S6        30.05S FOG
MILWAUKEE/TIMM FAIR      68  63  83 S3        30.04S
RACINE         FAIR      69  66  90 MISG      30.06S
6HR MIN TEMP:  68; 6HR MAX TEMP:  73; 6HR PCP: TRACE;

BURLINGTON     FOG       61  61  99 CALM      30.04S VSB 3/4
6HR MIN TEMP:  61; 6HR MAX TEMP:  74;

KENOSHA        FAIR      67  65  93 S3        30.05R
6HR MIN TEMP:  65; 6HR MAX TEMP:  75;

FOND DU LAC    FAIR      68  66  93 S6        30.02S FOG
6HR MIN TEMP:  66; 6HR MAX TEMP:  76;

SHEBOYGAN      FAIR      62  61  96 CALM      30.03S FOG
6HR MIN TEMP:  61; 6HR MAX TEMP:  71;

WEST BEND        N/A     64  63  94 CALM      30.04R FOG
JUNEAU         FAIR      67  66  98 SE3       30.04S FOG
6HR MIN TEMP:  67; 6HR MAX TEMP:  76; 6HR PCP:  0.01;

$$

LSZ147-162-010700-
LAKE SUPERIOR

STATION/POSITION TIME  TEMP    WIND        PRES    WAVE
                       AIR SEA DIR/SP/G            HT/PER
                 (UTC) (F)     (DEG/KT/KT) (MB)    (FT/S)
W MID LAKE BUOY  0550   62 54  210/ 14/ 16 1011.0R   1/ 3
DEVILS ISLAND    0600   74     190/ 11/ 14 1010.9S
PORT WING        0540   74     180/  9/ 12 1011.5S
SAXON HARBOR     0540   75     190/  3/ 10 1011.9R
$$

LMZ867-665-643>646-010700-
LAKE MICHIGAN

STATION/POSITION TIME  TEMP    WIND        PRES    WAVE
                       AIR SEA DIR/SP/G            HT/PER



USA.gov is the U.S. government's official web portal to all federal, state and local government web resources and services.